Regional Weather Roundup
Issued by NWS

Home | Current Version | Previous Version | Graphics & Text | Print | Product List | Glossary On
Versions: 1 2 3 4 5 6 7 8 9 10 11 12 13 14 15 16 17 18 19 20 21 22 23 24 25 26 27 28 29 30 31 32 33 34 35 36 37 38 39 40 41 42 43 44 45 46 47 48 49 50
000
ASUS43 KLOT 181312
RWRIL

ILLINOIS REGIONAL WEATHER ROUNDUP
NATIONAL WEATHER SERVICE CHICAGO/ROMEOVILLE IL
800 AM CDT SAT APR 18 2015

NOTE: "FAIR" INDICATES FEW OR NO CLOUDS BELOW 12,000 FEET WITH NO
SIGNIFICANT WEATHER AND/OR OBSTRUCTIONS TO VISIBILITY.

* THESE STATIONS ARE NOT UNDER NWS QUALITY CONTROL. THEY ALSO MAY NOT
  REPORT WEATHER SUCH AS PRECIPITATION OR FOG.

ILZ001-002-007-009-015-016-024-181400-
NORTHWEST ILLINOIS

CITY           SKY/WX    TMP DP  RH WIND       PRES   REMARKS
MOLINE         MOSUNNY   55  50  83 E3        30.01S
STERLING*      MOSUNNY   57  48  72 E6        30.03S
SAVANNA*       MOSUNNY   58  49  71 CALM      30.03S
$$

ILZ003-004-008-010-011-017-018-181400-
NORTH CENTRAL ILLINOIS

CITY           SKY/WX    TMP DP  RH WIND       PRES   REMARKS
ROCKFORD       PTSUNNY   59  50  72 N3        30.06F
FREEPORT*      MOSUNNY   56  48  76 CALM      30.06R
ROCHELLE*      MOSUNNY   60  50  69 NE3       30.04S
DE KALB*       MOSUNNY   60  49  66 NE3       30.05R
PERU*          MOSUNNY   60  52  74 CALM      30.04S
$$

ILZ005-006-012>014-019>023-181400-
NORTHEAST ILLINOIS

CITY           SKY/WX    TMP DP  RH WIND       PRES   REMARKS
CHICAGO-OHARE  PTSUNNY   64  46  52 NE8       30.04S
CHICAGO-MIDWAY MOSUNNY   66  50  56 N8        30.04S
AURORA         MOSUNNY   60  51  72 CALM      30.04S HAZE
LANSING*       SUNNY     60  49  67 CALM      30.04S
JOLIET*        PTSUNNY   62  54  75 CALM      30.04S
WAUKEGAN       SUNNY     53  40  61 N17G33    30.07R
DUPAGE AIRPORT SUNNY     61  52  72 N6        30.04S
KANKAKEE*      MOSUNNY   58  51  77 CALM      30.05S
WHEELING       MOSUNNY   62  44  51 NE16G25   30.07R
MORRIS*        PTSUNNY   58  50  74 CALM      30.02R
ROMEOVILLE*    MOSUNNY   61  52  71 CALM      30.04S
NORTHERLY ISL    N/A     64  44  48 N13         N/A
$$

LMZ740>746-181400-
SOUTHERN LAKE MICHIGAN

STATION/POSITION SKY/WX   TEMP    WIND        PRES    VSBY  WAVE
                          AIR SEA DIR/SP/G                  HT/PER
                          (F)     (DEG/KT/KT) (MB)    (MI)  (FT/S)
HARRISON CRIB              63     300/  8/  9   N/A
BURNHAM HARBOR             63     270/  6/ 11   N/A
CALUMET HARBOR             61     250/  2/  4   N/A
BURNS HARBOR               61     210/  6/  8 1017.6R
MICHIGAN CITY              62     200/  5/  6   N/A
MICHIGAN CITY 6N           51 47                N/A           0
$$

ILZ025>027-034>036-040-047-049-050-058-095>099-181400-
WEST-CENTRAL ILLINOIS

CITY           SKY/WX    TMP DP  RH WIND       PRES   REMARKS
QUINCY         CLOUDY    62  56  80 SE5       29.99S
GALESBURG*     PTSUNNY   60  54  80 E3        30.01S
MACOMB*        PTSUNNY   59  54  84 SE3       30.03S
JACKSONVILLE*  CLOUDY    62  56  82 SE3       30.01S
PITTSFIELD*    CLOUDY    59  55  86 SE3       30.02R
$$

ILZ028>032-037-038-041>044-048-051>054-059>061-181400-
CENTRAL ILLINOIS

CITY           SKY/WX    TMP DP  RH WIND       PRES   REMARKS
PONTIAC        MOSUNNY   61  55  80 SE3       30.04S
BLOOMINGTON    PTSUNNY   61  56  83 S3        30.05R
DECATUR        PTSUNNY   59  54  83 CALM      30.04S
PEORIA         PTSUNNY   64  56  75 CALM      30.02S
LACON*         MOSUNNY   62  53  73 SE3       30.02S
LINCOLN*       PTSUNNY   61  54  78 CALM      30.02S
SPRINGFIELD    PTSUNNY   61  56  83 E3        30.02S
TAYLORVILLE    CLOUDY    57  54  88 CALM      30.03S
$$

ILZ033-039-045-046-055>057-062-063-181400-
EAST-CENTRAL ILLINOIS

CITY           SKY/WX    TMP DP  RH WIND       PRES   REMARKS
CHAMPAIGN      PTSUNNY   63  53  70 SE3       30.04S
DANVILLE*      PTSUNNY   57  52  82 CALM      30.03R
RANTOUL*       PTSUNNY   62  54  74 CALM      30.05S
MATTOON        PTSUNNY   58  53  84 CALM      30.03S
PARIS*         PTSUNNY   58  55  91 CALM      30.06F
$$

ILZ079-100>102-181400-
SOUTHWEST ILLINOIS

CITY           SKY/WX    TMP DP  RH WIND       PRES   REMARKS
ALTON          CLOUDY    59  57  94 E6        30.01S FOG
BELLEVILLE     CLOUDY    59  59 100 CALM      30.00S
CAHOKIA*       CLOUDY    61  58  90 CALM      30.01R FOG
SPARTA*        PTSUNNY   59  58  97 E3        30.02S FOG
$$

ILZ064>066-069>071-074>076-080>082-084>086-088>090-092>094-181400-
SOUTH-CENTRAL ILLINOIS

CITY           SKY/WX    TMP DP  RH WIND       PRES   REMARKS
CARBONDALE     PTSUNNY   61  60  97 E3        30.01F FOG
CAIRO*         FOG       61  61 100 NE3       29.99F VSB<1/4
EFFINGHAM*     CLOUDY    57  54  89 CALM      30.05S FOG
MARION         MOSUNNY   61  61 100 E5        30.03R FOG
MT. VERNON     CLOUDY    57  54  88 CALM      30.03F
CENTRALIA*     CLOUDY    60  55  83 E3        30.02F HAZE
SALEM*         CLOUDY    63  56  80 E5        30.02F HAZE
METROPOLIS*    MOSUNNY   62  62 100 CALM      30.00F FOG
$$

ILZ067-068-072-073-078-083-087-091-181400-
SOUTHEAST ILLINOIS

CITY           SKY/WX    TMP DP  RH WIND       PRES   REMARKS
LAWRENCEVILLE  CLOUDY    57  55  93 NE3       30.03F
FLORA*         CLOUDY    57  55  94 CALM      30.04R FOG
FAIRFIELD*     CLOUDY    59  58  96 N3        30.02F FOG
HARRISBURG*    CLOUDY    60  60 100 CALM      30.03S FOG
ROBINSON*      CLOUDY    55  54  97 CALM      30.05F
CARMI*         CLOUDY    56  54  90 CALM      30.02F FOG
$$

ABBREVIATIONS USED IN REMARKS
   TC - TEMPERATURE IN CELSIUS
  WCI - WIND CHILL INDEX
   HX - HEAT INDEX
  VSB - VISIBILITY
$$




USA.gov is the U.S. government's official web portal to all federal, state and local government web resources and services.